User: anonymous   Login
Location: Unspecified
(0.0000°N, 0.0000°E)
Time: 06:21:27
(UTC+00:00)
Language:

RAX-2 - Orbit

View from above orbital plane
View from above orbital plane
View from above satellite
View from above satellite

Ground track
Ground track

The orbit data is extracted from the following two-line orbital elements,

1 37853U 11061D   15028.33634012  .00010164  00000-0  64558-3 0   267
2 37853 101.7045 170.9684 0203444 123.8675 297.6551 14.93674056176217
Epoch (UTC): 28 January 2015 08:04:19
Eccentricity: 0.0203444
inclination: 101.7045°
perigee height: 445 km
apogee height: 728 km
right ascension of ascending node: 170.9684°
argument of perigee: 123.8675°
revolutions per day: 14.93674056
mean anomaly at epoch: 297.6551°
orbit number at epoch: 17621

The dashed part of the orbit path shows where the satellite is in the earth's shadow,  

DLR